Location: *
(33.3200°N, 8.3381°W)
Time: 12:23:53
(UTC+00:00)

Cosmos 1610 Rocket - Pass Details

Date: 09 April 2020
Orbit: 953 x 1002 km, 82.9° (Epoch: 04 June)

Event Time Altitude Azimuth Distance (km) Brightness Sun altitude
Rises 20:02:51 0° 358° (N) 3,650 7.8 -13.5°
Reaches altitude 10° 20:05:25 10° 3° (N) 2,695 7.0 -14.0°
Maximum altitude 20:11:29 59° 82° (E) 1,094 4.5 -15.2°
Drops below altitude 10° 20:17:28 10° 161° (SSE) 2,669 6.4 -16.4°
Enters shadow 20:17:46 - 162° (SSE) 2,775 6.5 -16.5°
